ネオワイズ彗星

C/2021 A2 ( NEOWISE )

English version
Home page
Updated on February 21, 2021

---------------------------------------------------------------------

・ プロフィール

発見日 2021年1月3日
発見光度 15等
発見者 Near-Earth Object Wide-field Infrared Survey Explorer

・ 写真集

・ 軌道要素

Epoch 2021 Jan. 26.0 TT = JDT 2459240.5
T 2021 Jan. 22.70859 TT                                 Rudenko
q   1.4135246            (2000.0)            P               Q
z  -0.0007344      Peri.  338.88913     -0.62418177     +0.01547632
 +/-0.0014333      Node   125.21988     +0.78040208     +0.05971195
e   1.0010380      Incl.  107.02934     -0.03700977     +0.99809567
From 152 observations 2021 Jan. 3-26, mean residual 0".8.

・ 星図

・ 光度変化

        m1 = 10.5 + 5 logΔ + 10.0 log r

---------------------------------------------------------------------

軌道要素はM.P.E.C. 2021-B143に掲載されたものです。
星図はステラナビゲータ Ver.10 (アストロアーツ) で作成したものです。
光度グラフはComet for Windowsで作成したものです。

---------------------------------------------------------------------

Copyright(C) Seiichi Yoshida (comet@aerith.net). All rights reserved.